Flag for China Weather past 2 weeks in Xiamen, Fujian, China

Now
72 °F

Fog.


Feels Like: 65 °F
Forecast: 71 / 77 °F
Wind: 1 mph from North

Location: Xiamen Airport

Current Time: May 25, 2015 at 5:20:49 AM

Latest Report: May 25, 2015 at 4:00 AM


Visibility: 3 mi

Pressure: 29.74 "Hg

Humidity: 100%

Dew point: 72 °F

Location of XiamenLocation

Historic Weather in Xiamen — Graph

°F

Xiamen temperature yesterday

Maximum temperature yesterday: 73 °F (at 10:00 AM)
Minimum temperature yesterday: 70 °F (at 11:00 PM)
Average temperature yesterday: 72 °F

Past Weeks' High & Low Weather Summary

 TemperatureHumidityPressure
High91 °F (May 16, 2:00 PM)100% (May 12, 2:00 AM)29.95 "Hg (May 12, 2:00 AM)
Low64 °F (May 21, 12:00 PM)19% (May 12, 11:00 AM)29.65 "Hg (May 19, 4:00 PM)
Average77 °F85%29.82 "Hg
* Reported May 10 4:00 AM — May 25 4:00 AM, Xiamen, Weather by CustomWeather, © 2015

Note: Actual official high and low records may vary slightly from our data, if they occured in-between our weather recording intervals... More about our weather records

Advertising

Xiamen weather history for previous 24 hours

 ConditionsComfort  
Time TempWeatherWind HumidityBarometerVisibility
4:00 AM
Mon, May 25
72 °FFog.1 mph100%29.74 "Hg3 mi
3:00 AM70 °FFog.1 mph100%29.74 "Hg3 mi
2:00 AM70 °FFog.1 mph100%29.74 "Hg3 mi
1:00 AM70 °FFog.8 mph100%29.74 "Hg2 mi
12:00 AM70 °FLight rain. Fog.6 mph100%29.77 "Hg2 mi
11:00 PM
Sun, May 24
70 °FLight rain. Fog.3 mph100%29.77 "Hg2 mi
10:00 PM72 °FLight rain. Fog.6 mph100%29.77 "Hg2 mi
9:00 PM72 °FLight rain. Fog.6 mph100%29.77 "Hg2 mi
8:00 PM72 °FLight rain. Fog.8 mph100%29.74 "Hg2 mi
7:00 PM72 °FLight rain. Fog.8 mph100%29.74 "Hg2 mi
6:00 PM72 °FLight rain. Fog.8 mph100%29.71 "Hg2 mi
5:00 PM73 °FLight rain. Fog.8 mph100%29.71 "Hg2 mi
4:00 PM73 °FLight rain. Fog.8 mph100%29.68 "Hg2 mi
3:00 PM73 °FLight rain. Fog.10 mph100%29.71 "Hg3 mi
2:00 PM73 °FRain. Fog.6 mph100%29.71 "Hg2 mi
1:00 PM73 °FLight rain. Fog.8 mph100%29.71 "Hg2 mi
12:00 PM73 °FLight rain. Fog.6 mph100%29.74 "Hg2 mi
11:00 AM73 °FLight rain. Fog.6 mph100%29.74 "Hg3 mi
10:00 AM73 °FLight rain. Fog.6 mph100%29.74 "Hg2 mi
9:00 AM72 °FDrizzle. Fog.6 mph100%29.74 "Hg2 mi
8:00 AM72 °FDrizzle. Fog.3 mph100%29.74 "Hg1 mi
7:00 AM72 °FFog.3 mph100%29.71 "Hg2 mi
6:00 AM72 °FFog.1 mph100%29.71 "Hg2 mi
5:00 AM72 °FFog.1 mph100%29.68 "Hg2 mi
Weather by CustomWeather, © 2015

See weather overviewHow to use our weather pages